Showing default

FLOCK 4G 27, 62641

Orbit data source: Space-Track

FLOCK 4G 27, 62641 is a payload satellite in SSO that was launched on Tue, 14 Jan 2025 UTC via an FALCON 9 launch vehicle from the Air Force Western Test Range (AFWTR). Payload-class satellites include a variety of spacecraft equipped with specific instruments for various scientific and technological missions. These include communications satellites like Starlink; space stations such as the ISS; scientific satellites like the Hubble; Earth observation satellites from companies like Planet Labs, Umbra, and HawkEye 360; GPS; miniature CubeSats for education and research; and military/defense satellites.

Loading next visibility...
Identifier
62641, 2025-009AJ
Orbit
SSO
Last TLE update
1 day ago
Origin
Manufacturer
Planet
Mission
Operational Commercial Imaging
Bus & Motor
CUBESAT 3U, Unknown motor
Mass
5.7 kg wet, 5.7 kg dry
Launch date (UTC)
2025-01-14 (4 months ago)
Launch vehicle
FALCON 9
Launch site
Air Force Western Test Range (AFWTR)
Object type
Payload
Rocket body
Debris
Shape & HBR
Box + 2 Pan, 0.3 m
Radar Cross Section
0.035 m², Medium (>0.1 m² and < 1m²)

Expand to show TLE details & history

TLE from 1 day ago
0 FLOCK 4G 27
1 62641U 25009AJ  25139.47990842  .00007560  00000-0  34945-3 0  9994
2 62641  97.4246 220.1138 0001507 210.8560 149.2587 15.20453582 18915
Epoch: 2025-05-19T11:31Z
TLE epoch observation values (Epoch: 2025-05-19T11:31:04.087Z)
Latitude
-0.00002°
Longitude
169.95485°
Altitude
508.454 km
Speed
7.609 km/s
True Right ascension
14h 40m 27s
True Declination
0° 00' 00"
Sunlit
Object was in full shadow at epoch
Visualization orbit readout
Latitude
64.56468°
Longitude
155.32025°
Altitude
516.385 km
Speed
7.611 km/s
Apparent Right ascension
13h 20m 44s
Apparent Declination
15° 12' 13"
Sunlit
Object is in daylight
Visualization observer readout
Local Sidereal Time
01:07:55
Azimuth
356.234° N
Elevation
-34.8°
Doppler factor
1
Orbital elements
Apogee altitude
502.474 km
Perigee altitude
500.401 km
Semi-major axis
6,879.574 km
Eccentricity
0.00015
Inclination
97.4246°
RAAN
220.1138°
Arg. of periapsis
210.856°
True anomaly
Unknown
Mean anomaly
149.2587°
Eccentric anomaly
Unknown
Mean motion
3.80365 °/min
Orbital period
94.65 mins
BSTAR
0.00034945
Loading maneuver chart data...
Loading SW <> Apogee altitude chart data...
Loading historical data...
Loading historical data...
Loading historical data...
Loading historical data...
Loading historical data...
Loading historical data...
Loading historical data...

FLOCK 4G 27 Visibility forecast

Observer location: undefined°, undefined°

Span
Click to sort rows by Start time (UTC) header in descending order
Start Az.
Max El. time (UTC)
Max El. Az.
Max El.
End time (UTC)
End Az.
7 mins2025-05-20 18:05:07.138Z17.132° NNE2025-05-20 18:08:07.138Z57.05° ENE41.847°2025-05-20 18:12:07.138Z185.816° SSW
5 mins2025-05-21 04:44:07.138Z117.526° SE2025-05-21 04:46:07.138Z72.791° E23.972°2025-05-21 04:49:07.138Z14.634° NNE
|